This is the latest recevied weather packets stored in our database for station/object KB3FKJ. If no packets are shown the sender has not sent any weather packets the latest 10 day(s).
| Time | Temp. | Humidity | Pressure | Rain* | Wind** | Luminosity | Snow |
|---|---|---|---|---|---|---|---|
| 1777109380 | 10° C | 77% | 1008.6 hPa | 0 mm | - | 0 W/m² | - |
| 1777109077 | 10° C | 76% | 1008.7 hPa | 0 mm | - | 0 W/m² | - |
| 1777108776 | 10° C | 77% | 1008.4 hPa | 0 mm | - | 0 W/m² | - |
| 1777108474 | 9.44° C | 77% | 1008.6 hPa | 0 mm | - | 0 W/m² | - |
| 1777108169 | 9.44° C | 77% | 1008.5 hPa | 0 mm | - | 0 W/m² | - |
| 1777107865 | 9.44° C | 76% | 1008.3 hPa | 0 mm | - | 0 W/m² | - |
| 1777107565 | 10° C | 75% | 1008.4 hPa | 0 mm | - | 0 W/m² | - |
| 1777107261 | 10° C | 74% | 1008.2 hPa | 0 mm | - | 0 W/m² | - |
| 1777106961 | 10° C | 74% | 1008.3 hPa | 0 mm | - | 0 W/m² | - |
| 1777106658 | 10° C | 74% | 1008.3 hPa | 0 mm | - | 0 W/m² | - |
| 1777106354 | 10° C | 73% | 1008.4 hPa | 0 mm | - | 0 W/m² | - |
| 1777106050 | 10° C | 74% | 1008.3 hPa | 0 mm | - | 0 W/m² | - |
| 1777105748 | 10.56° C | 73% | 1008.2 hPa | 0 mm | - | 0 W/m² | - |
| 1777105443 | 10.56° C | 73% | 1008.2 hPa | 0 mm | - | 0 W/m² | - |
| 1777105140 | 10.56° C | 73% | 1008.1 hPa | 0 mm | - | 0 W/m² | - |
| 1777104836 | 11.11° C | 72% | 1008 hPa | 0 mm | - | 0 W/m² | - |
| 1777104532 | 11.11° C | 70% | 1008.1 hPa | 0 mm | - | 0 W/m² | - |
| 1777104229 | 10.56° C | 72% | 1008.1 hPa | 0 mm | - | 0 W/m² | - |
| 1777103924 | 10.56° C | 75% | 1008 hPa | 0 mm | - | 0 W/m² | - |
| 1777103621 | 11.11° C | 74% | 1008 hPa | 0 mm | - | 0 W/m² | - |
| 1777103318 | 11.11° C | 73% | 1008 hPa | 0 mm | - | 0 W/m² | - |
| 1777103016 | 10.56° C | 76% | 1007.8 hPa | 0 mm | - | 0 W/m² | - |
* Rain latest hour (hover to see other rain measurements)
** Current wind speed in m/s (hover to see current wind gust speed)